P/2015 TP200 ( LINEAR )

Japanese version
Home page
Updated on February 7, 2017

---------------------------------------------------------------------

* Profile

Discovery Date October 10, 2015
Magnitude 19.7 mag
Discoverer LINEAR survey (Space Surveillance Telescope, Atom Peak, White Sands Missile Range, NM, USA)

* Pictures

* Orbital Elements

Epoch 2016 Oct. 19.0 TT = JDT 2457680.5
T 2016 Oct. 28.20174 TT                                 MPCW
q   3.3852984            (2000.0)            P               Q
n   0.04998845     Peri.   82.73532     +0.00645601     -0.99980762
a   7.2983210      Node     6.97552     +0.84672550     -0.00438798
e   0.5361538      Incl.    8.77231     +0.53199083     +0.01911721
P  19.72
From 160 observations 2015 Sept. 12-2016 Nov. 10, mean residual 0".5.

* Magnitudes Graph

        m1 = 1.5 + 5 log d + 25.0 log r

---------------------------------------------------------------------

The orbital elements are published on M.P.E.C. 2016-V116.
The magnitudes graphs are made with Comet for Windows.

---------------------------------------------------------------------

Copyright(C) Seiichi Yoshida (comet@aerith.net). All rights reserved.